Regional Weather Roundup
Issued by NWS State College, PA

Home | Current Version | Previous Version | Graphics & Text | Print | Product List | Glossary On
Versions: 1 2 3 4 5 6 7 8 9 10 11 12 13 14 15 16 17 18 19 20 21 22 23 24 25 26 27 28 29 30 31 32 33 34 35 36 37 38 39 40 41 42 43 44 45 46 47 48 49 50
000
ASUS41 KCTP 221010
RWRCTP

REGIONAL WEATHER ROUNDUP
NATIONAL WEATHER SERVICE STATE COLLEGE PA
600 AM EDT MON SEP 22 2014

Note: "fair" indicates few or no clouds below 12,000 feet with no
significant weather and/or obstructions to visibility.

* = STATION THAT DOES NOT REPORT PRECIPITATION /E.G. RAIN...SNOW...ETC/
    THUNDER OR FOG.

PAZ002>004-007>009-013>016-020>023-029>032-221100-
WESTERN PENNSYLVANIA

CITY           SKY/WX    TMP DP  RH WIND       PRES   REMARKS
ERIE           CLOUDY    54  39  57 NW16G28   29.99R
MEADVILLE      CLOUDY    49  46  90 N12       29.98R
FRANKLIN*      CLOUDY    48  45  87 NW7       29.98R
NEW CASTLE     NOT AVBL
BEAVER COUNTY  NOT AVBL
BUTLER*        CLOUDY    50  45  81 W6        30.01R
PITTSBURGH INT CLOUDY    53  46  77 NW15      29.99R
PITTSBURGH     CLOUDY    53  44  71 NW8G18    29.99R
INDIANA*       CLOUDY    52  46  82 NW9G20    30.00R
LATROBE        CLOUDY    54  52  94 W6        30.00R
WASHINGTON CO* CLOUDY    52  46  82 NW3       30.01R
$$

PAZ004>006-010>012-017>019-024>028-033>037-041-042-045-046-049>053-221100-
CENTRAL PENNSYLVANIA

CITY           SKY/WX    TMP DP  RH WIND       PRES   REMARKS
BRADFORD       CLOUDY    47  44  90 NW12G20   29.90R
DUBOIS         MOCLDY    48  44  86 NW12G22   29.92R
CLEARFIELD     CLOUDY    51  45  79 NW9       29.92R
JOHNSTOWN      CLOUDY    49  45  86 NW21G29   29.94R
ALTOONA        LGT RAIN  52  48  86 NW14      29.94R
STATE COLLEGE  CLOUDY    54  45  71 W14G22    29.90R
WILLIAMSPORT   RAIN      58  50  75 W12       29.83R
SELINSGROVE    CLOUDY    61  48  62 VRB7      29.85R
FT INDIANTOWN  CLEAR     60  50  69 W9        29.84R
CAPITAL CITY   CLEAR     60  47  61 W8        29.85R
HARRISBURG     PTCLDY    61  50  67 NW13      29.84R
YORK           CLEAR     58  48  69 W6        29.87R
$$

PAZ038>040-043-044-047-048-054-055-060>062-067>071-221100-
EASTERN PENNSYLVANIA

CITY           SKY/WX    TMP DP  RH WIND       PRES   REMARKS
SCRANTON       CLEAR     57  52  83 SW8       29.80R
MOUNT POCONO   CLEAR     53  32  44 W12G22    29.78R
ALLENTOWN      CLEAR     60  49  66 W7        29.79R
QUAKERTOWN*    SUNNY     59  50  72 W6        29.80R
READING        CLEAR     61  49  64 W13       29.82R
LANCASTER      CLEAR     55  49  80 W7        29.84R
COATESVILLE    SUNNY     57  50  77 NW12      29.83R
POTTSTOWN      CLEAR     59  50  72 W6        29.82R
BLUE BELL      CLEAR     63  52  67 W7        29.78R
DOYLESTOWN     CLEAR     60  51  72 W7        29.78R
WILLOW GROVE   NOT AVBL
NORTH PHILA    CLEAR     63  50  62 W9        29.80R
PHILADELPHIA   CLEAR     63  53  70 W8        29.81R
$$


USA.gov is the U.S. government's official web portal to all federal, state and local government web resources and services.